Wind_Speed
23 22 21 21 21 20 21 22 22 22 21 20 20 18 17 16 15 15 15 13 12 12 12 12 13 12 11 11 11 10 10 10 10 10 10 10 10 10 10 10 10 10 9 9 9 9 9 9 10
22 21 20 20 21 20 22 23 23 22 21 21 20 18 17 15 15 15 14 13 12 12 12 13 12 12 11 11 11 10 10 10 10 11 10 10 10 10 9 10 11 11 10 10 10 9 9 9 10
19 20 20 20 20 22 23 23 23 22 21 20 20 18 16 15 15 15 15 13 13 13 13 13 13 12 11 11 11 10 10 10 10 10 10 11 11 10 10 10 11 10 10 10 10 10 10 10 9
18 19 19 20 20 22 23 23 23 22 21 20 19 18 16 15 16 15 15 14 13 14 14 13 13 13 12 12 11 11 11 11 10 10 10 11 11 11 11 11 11 10 10 10 10 10 10 10 9
17 18 19 19 21 22 23 23 23 22 21 20 19 17 16 16 15 16 15 14 14 14 14 14 13 14 13 13 12 11 11 11 11 11 11 10 10 10 10 11 11 10 10 10 10 9 9 9 8
16 18 18 20 21 23 23 23 23 22 21 20 19 17 17 16 16 16 16 15 15 15 15 14 14 14 13 13 13 12 11 11 11 11 10 10 10 10 10 10 10 10 10 9 9 9 9 8 8
15 16 19 21 22 23 24 24 23 22 20 20 19 18 18 17 17 16 16 15 15 15 15 15 14 14 14 14 13 13 12 11 11 10 10 10 10 10 10 10 10 10 9 9 8 8 8 7 7
14 15 17 20 22 22 23 23 22 22 21 20 19 18 18 17 17 17 16 15 15 15 15 15 15 15 14 14 13 13 12 11 10 10 10 10 10 10 10 9 9 9 8 8 8 7 7 7 7
13 14 16 19 21 21 22 22 22 22 21 20 19 19 18 17 16 16 16 15 15 15 15 15 14 14 14 13 12 13 12 11 10 10 9 9 9 9 9 9 9 8 8 8 7 7 7 6 6
11 12 15 17 19 20 21 21 21 21 21 20 19 18 18 17 16 15 15 15 15 14 15 14 14 13 13 13 12 11 11 10 10 10 9 9 9 8 8 8 8 7 7 7 6 6 6 6 5
11 12 14 16 18 19 20 20 20 20 20 20 19 18 18 18 17 16 15 15 14 14 14 14 13 13 13 12 12 10 10 10 9 9 9 8 8 7 7 7 7 6 6 6 5 5 4 4 4
10 11 13 15 17 19 19 19 19 20 19 19 18 18 17 17 17 17 17 16 16 14 14 14 14 13 12 12 11 10 10 9 8 8 8 8 7 7 6 6 6 5 4 4 3 3 2 2 2
7 9 12 14 16 18 18 19 18 18 18 18 17 17 16 16 16 17 17 16 16 15 15 14 14 13 12 11 11 11 10 9 8 8 7 7 6 5 5 5 4 4 3 3 2 2 1 1 1
5 7 9 12 14 16 17 18 18 17 17 17 16 16 16 16 16 16 16 16 15 15 15 14 14 12 12 11 11 10 10 9 9 7 6 6 5 4 4 4 3 3 3 3 2 2 2 1 0
4 6 8 10 12 13 14 16 16 16 16 16 16 16 16 16 16 16 16 16 16 15 14 14 14 13 11 11 10 10 9 8 8 7 6 6 5 5 4 2 2 2 2 1 1 1 1 1 1
4 4 6 7 8 10 11 14 14 14 15 15 15 14 15 16 15 15 15 15 15 15 15 14 14 12 11 11 10 10 9 8 7 6 6 6 4 3 2 2 2 2 1 1 1 1 1 2 2
6 4 4 5 6 8 9 11 12 12 13 13 13 13 14 15 15 15 14 14 14 14 14 14 13 12 11 10 10 10 10 9 8 6 6 5 4 3 2 2 2 2 2 2 2 2 2 3 3
7 5 3 2 4 5 7 8 9 10 10 11 11 12 13 13 14 14 14 14 13 13 14 13 13 12 11 10 10 10 10 9 9 7 7 6 5 4 3 2 2 3 3 3 2 2 2 2 3
9 7 5 4 2 2 3 5 6 7 8 9 10 11 12 12 12 12 13 13 12 12 13 13 13 13 12 11 11 11 10 10 9 8 7 7 7 6 4 3 3 3 4 4 3 2 2 3 4
12 9 7 6 4 3 1 1 4 4 5 7 8 9 10 11 11 11 11 12 11 11 12 12 12 12 12 11 11 11 10 10 10 9 8 8 7 7 6 4 4 4 4 4 4 4 4 4 5
14 12 10 9 8 6 4 2 2 2 3 5 7 8 8 9 9 9 10 10 11 11 11 11 11 11 11 11 10 11 11 10 10 9 9 8 7 6 6 5 5 5 4 4 4 4 5 6 6
17 15 13 12 11 8 6 4 2 2 3 4 6 7 7 8 9 8 8 9 10 10 10 11 11 11 11 10 10 10 10 11 10 9 9 8 7 7 6 6 6 6 5 5 5 6 6 7 8
20 18 16 15 14 11 9 7 5 4 3 3 5 5 6 7 7 7 7 8 9 9 9 10 11 11 11 10 10 10 10 10 10 10 9 8 8 8 7 7 7 6 6 6 7 8 8 8 9
22 21 19 18 17 15 12 11 8 6 5 3 4 5 6 6 6 7 7 7 8 8 8 9 10 10 10 10 10 10 10 10 10 10 9 9 9 9 8 8 8 8 8 8 9 9 9 10 11
25 23 22 21 19 17 15 14 11 9 8 5 4 5 6 7 6 6 7 8 7 7 8 8 9 10 10 10 10 10 10 10 11 10 9 9 10 10 9 9 8 8 8 9 9 10 11 12 12
27 25 24 23 22 20 19 17 14 13 11 9 7 6 6 6 6 6 7 7 7 7 8 8 9 9 9 10 10 10 11 11 11 10 10 10 10 10 10 9 9 9 9 10 10 11 12 13 13
30 29 27 26 25 23 21 19 16 15 13 11 10 8 7 7 7 6 7 7 7 8 8 9 8 9 9 10 11 11 11 11 11 11 11 11 11 11 11 10 10 10 10 11 11 12 12 12 12
31 30 29 29 27 26 24 22 18 16 15 14 12 10 9 9 9 8 8 8 8 9 9 9 9 9 9 10 10 11 11 11 12 12 12 11 11 11 11 11 11 11 11 11 12 13 13 13 13
32 32 31 30 30 28 26 23 20 18 17 15 13 12 11 10 10 10 9 9 9 10 10 10 9 10 10 10 11 11 12 12 12 12 12 12 12 12 11 12 11 11 11 12 12 13 13 14 14
33 32 31 31 30 29 27 24 21 20 19 16 15 14 13 12 11 11 10 11 11 11 11 10 11 11 11 11 12 12 12 13 13 14 14 13 12 12 12 12 12 12 12 12 12 13 13 14 14
Wind_Direction
65 63 64 65 64 64 64 63 63 63 63 61 60 60 61 61 63 67 67 69 69 70 73 74 76 80 83 79 81 82 86 87 89 89 92 93 96 98 99 99 102 102 105 107 111 112 108 107 110
66 62 62 63 65 64 64 63 62 60 60 60 59 58 58 60 63 66 66 67 69 73 75 77 76 79 81 80 82 84 86 87 90 87 88 89 92 96 99 99 103 107 109 109 106 108 107 106 107
67 63 61 64 65 65 65 64 62 58 57 57 57 57 56 60 64 67 67 66 69 73 75 77 78 78 80 83 84 86 88 88 89 87 86 88 89 90 96 102 104 107 109 106 102 105 107 108 107
69 66 61 64 65 66 66 65 63 60 56 55 56 57 57 61 64 66 68 69 70 73 74 76 76 76 80 83 87 88 91 89 87 88 88 90 91 91 93 97 101 103 104 105 104 105 107 107 106
71 68 63 64 65 65 66 66 63 60 57 56 58 58 58 60 62 64 67 70 71 72 71 74 76 75 78 83 85 88 91 89 88 90 89 91 92 94 96 96 99 101 102 102 103 106 108 105 101
70 69 67 65 64 63 64 63 62 59 57 56 58 59 58 58 61 64 64 66 70 70 70 70 74 74 78 82 85 88 89 89 89 89 90 92 96 97 97 97 99 99 100 101 102 103 104 104 101
69 68 68 65 64 62 61 60 60 58 57 56 58 59 59 59 61 63 64 66 69 70 70 71 72 75 79 82 84 87 88 88 87 87 91 95 99 100 97 97 99 99 100 101 100 100 100 102 100
70 69 68 65 62 60 59 58 57 56 56 56 58 59 59 61 62 62 63 64 66 68 69 69 72 78 80 81 84 86 88 89 89 89 92 97 100 101 100 99 102 103 102 101 99 99 100 102 97
75 71 69 67 63 58 57 58 55 55 55 56 58 58 57 60 60 61 63 62 62 65 66 67 72 78 80 81 84 84 85 87 89 92 95 99 102 105 103 104 105 106 105 104 102 102 103 102 95
79 74 71 70 65 60 57 56 54 53 52 52 54 56 55 57 57 59 61 62 61 62 64 66 68 73 77 80 85 84 84 85 87 88 93 96 100 105 107 108 108 108 105 102 99 98 98 100 97
82 76 73 71 66 62 59 56 53 50 48 48 51 53 53 54 56 57 59 58 59 61 62 62 63 67 68 72 77 85 83 84 86 86 88 89 93 99 107 111 113 109 106 104 100 98 95 95 96
84 78 75 70 64 59 56 54 50 47 46 47 50 51 51 53 54 56 58 58 57 56 57 60 63 64 65 65 70 83 82 81 86 88 87 87 88 93 107 114 114 116 122 119 110 105 99 98 98
88 78 77 72 65 59 52 49 48 44 44 45 49 50 51 53 53 53 55 57 57 57 56 58 60 63 66 68 70 76 72 78 79 81 79 78 80 90 96 103 117 121 129 144 146 131 137 129 144
95 80 78 71 63 59 53 49 46 44 44 43 46 48 49 50 51 52 53 55 54 54 54 55 56 58 61 64 69 71 73 70 70 70 67 63 65 73 82 88 112 120 119 137 156 160 168 177 158
118 87 83 77 66 60 56 50 45 42 42 42 43 46 46 47 49 51 52 52 52 51 51 51 51 54 56 57 60 62 69 66 65 59 57 51 56 63 66 73 94 105 127 158 181 195 193 237 275
153 117 96 82 72 64 60 54 45 39 37 39 40 44 45 45 46 48 50 50 51 52 51 51 50 52 54 55 58 59 61 60 56 53 47 41 45 45 49 63 31 30 36 301 259 261 265 282 281
181 152 119 95 84 74 66 58 46 39 34 36 38 41 44 42 42 43 45 47 49 50 49 48 49 52 54 55 56 55 53 48 43 39 31 26 24 11 19 14 4 1 10 337 292 278 283 283 278
198 193 187 144 106 87 73 58 46 36 29 33 37 39 41 40 39 38 38 42 44 45 45 46 47 49 51 51 50 49 46 42 39 36 28 24 22 10 353 344 336 331 344 358 350 314 320 306 299
206 210 212 206 184 114 80 55 43 36 30 29 31 33 35 37 37 37 36 38 39 41 42 44 45 45 47 45 43 42 42 40 34 32 30 21 10 360 356 336 323 336 341 355 354 338 312 301 298
215 218 219 216 226 222 200 45 33 36 30 23 25 27 29 32 34 34 36 37 36 37 39 41 42 42 42 42 39 37 34 30 28 29 24 18 13 10 3 354 346 338 338 344 348 338 328 307 295
221 220 222 223 234 240 242 249 355 14 14 18 15 15 20 23 28 32 32 33 31 30 30 33 35 37 37 36 33 31 27 24 22 20 18 14 8 360 359 349 336 332 325 326 329 322 317 313 306
222 223 224 228 234 242 249 244 274 311 353 11 6 6 11 17 20 23 22 24 22 21 21 24 27 30 31 30 29 24 21 19 16 12 8 4 359 351 343 336 328 323 317 314 316 314 311 308 308
223 224 225 227 232 241 248 254 260 277 310 351 352 350 358 5 11 11 13 14 13 13 17 19 26 26 26 27 23 18 13 9 6 4 1 358 354 346 336 326 322 318 314 312 310 305 305 305 306
225 224 225 229 234 241 249 257 261 264 285 305 329 332 334 343 352 360 1 3 6 7 11 11 17 17 19 19 17 12 7 2 360 357 355 351 345 337 333 322 314 313 309 305 306 304 306 305 303
225 225 229 233 237 243 248 254 260 264 272 277 291 306 313 324 330 343 348 353 359 1 3 4 6 6 8 8 6 5 3 358 352 349 348 344 340 334 328 326 319 316 313 309 308 304 304 306 303
228 229 232 237 240 244 247 253 257 262 266 269 276 283 294 310 314 322 332 340 347 349 351 354 355 359 358 357 357 358 357 354 351 347 344 342 338 335 329 325 320 314 311 310 310 308 305 306 304
228 231 233 237 241 245 249 252 251 256 265 268 271 272 281 294 298 307 316 323 331 337 340 344 347 348 349 349 352 353 353 352 350 348 343 340 336 333 330 323 319 313 312 311 310 311 310 309 308
229 232 234 237 241 246 249 250 252 255 262 267 267 272 281 284 288 297 303 308 315 320 326 332 334 337 341 345 347 348 347 345 344 341 339 336 334 331 328 327 320 316 315 314 313 312 313 313 312
231 232 235 239 242 247 250 251 252 255 256 261 267 272 277 282 287 291 294 300 307 310 312 318 324 327 330 335 338 337 337 339 339 337 335 333 330 329 327 326 325 321 317 315 314 316 316 315 314
231 233 237 240 244 247 250 251 251 253 254 256 262 266 270 274 279 285 292 297 301 304 303 307 311 315 319 323 328 329 330 331 333 333 333 333 333 333 331 328 325 325 324 322 319 317 315 315 314
Height
5888 5887 5886 5886 5884 5882 5879 5878 5876 5876 5875 5874 5873 5872 5871 5871 5871 5872 5869 5867 5867 5866 5865 5865 5864 5864 5864 5864 5864 5865 5865 5865 5866 5866 5867 5867 5868 5869 5869 5870 5871 5871 5872 5873 5874 5874 5875 5876 5876
5892 5891 5891 5888 5886 5884 5882 5880 5879 5879 5878 5876 5876 5875 5874 5873 5872 5871 5870 5870 5869 5868 5868 5867 5866 5866 5866 5866 5866 5866 5867 5867 5868 5868 5869 5869 5870 5870 5871 5871 5872 5873 5874 5874 5875 5876 5877 5878 5878
5895 5894 5894 5891 5888 5887 5885 5883 5882 5881 5880 5879 5878 5877 5877 5876 5874 5873 5872 5872 5871 5870 5870 5869 5868 5868 5868 5868 5868 5868 5868 5869 5869 5870 5871 5871 5872 5872 5873 5873 5874 5875 5875 5876 5877 5878 5879 5879 5880
5898 5898 5897 5894 5891 5889 5887 5886 5884 5884 5883 5882 5881 5880 5879 5878 5877 5875 5874 5874 5873 5872 5871 5871 5870 5870 5870 5870 5870 5870 5870 5871 5871 5872 5873 5873 5874 5874 5875 5875 5876 5876 5877 5878 5879 5880 5880 5881 5882
5901 5900 5899 5897 5895 5893 5890 5889 5887 5886 5886 5885 5884 5883 5882 5881 5879 5878 5877 5876 5876 5875 5874 5873 5872 5872 5871 5872 5872 5872 5872 5873 5873 5874 5875 5875 5876 5876 5877 5877 5878 5879 5879 5880 5881 5882 5882 5883 5884
5904 5903 5902 5900 5898 5896 5893 5892 5890 5890 5889 5888 5887 5886 5885 5884 5882 5881 5880 5879 5878 5877 5876 5875 5875 5874 5874 5874 5874 5874 5875 5875 5875 5876 5877 5877 5878 5878 5879 5879 5880 5881 5881 5882 5882 5883 5884 5885 5885
5907 5905 5904 5902 5901 5899 5897 5895 5894 5893 5892 5891 5890 5889 5888 5887 5886 5884 5883 5882 5881 5880 5879 5878 5877 5876 5876 5876 5876 5876 5877 5877 5877 5878 5878 5879 5879 5880 5881 5881 5882 5882 5883 5884 5884 5885 5886 5886 5887
5909 5908 5906 5904 5903 5902 5901 5899 5897 5896 5896 5895 5893 5892 5891 5890 5889 5887 5886 5885 5884 5882 5881 5880 5880 5879 5878 5878 5878 5878 5879 5879 5879 5879 5880 5880 5881 5882 5882 5883 5884 5884 5885 5885 5886 5886 5887 5887 5888
5911 5911 5909 5907 5906 5906 5904 5902 5901 5900 5899 5898 5896 5895 5894 5893 5891 5890 5889 5888 5887 5885 5884 5883 5882 5881 5881 5880 5880 5880 5881 5881 5881 5881 5881 5882 5883 5883 5884 5885 5885 5886 5886 5887 5887 5888 5888 5888 5889
5913 5913 5912 5911 5910 5909 5907 5906 5905 5904 5902 5901 5899 5898 5897 5895 5894 5893 5892 5891 5889 5888 5887 5886 5885 5884 5883 5883 5883 5882 5883 5882 5882 5882 5883 5883 5884 5885 5886 5886 5887 5887 5888 5888 5889 5889 5889 5890 5890
5915 5914 5914 5913 5912 5911 5910 5909 5908 5907 5906 5904 5903 5902 5900 5899 5897 5896 5895 5893 5892 5890 5889 5888 5887 5886 5886 5885 5884 5884 5884 5884 5884 5884 5884 5885 5885 5886 5887 5887 5888 5888 5889 5889 5890 5890 5890 5891 5891
5917 5916 5916 5915 5914 5914 5913 5912 5911 5910 5909 5908 5906 5905 5903 5902 5901 5899 5897 5896 5894 5893 5891 5890 5889 5889 5888 5887 5887 5886 5886 5886 5886 5886 5886 5886 5886 5887 5887 5888 5889 5889 5890 5890 5890 5891 5891 5891 5892
5918 5918 5917 5917 5917 5916 5915 5915 5914 5913 5912 5911 5909 5908 5907 5905 5903 5902 5900 5898 5897 5895 5894 5893 5892 5891 5890 5890 5889 5888 5888 5888 5888 5888 5888 5888 5888 5888 5888 5889 5889 5890 5890 5890 5891 5891 5891 5892 5892
5920 5919 5919 5918 5918 5918 5917 5917 5917 5916 5915 5914 5912 5911 5909 5908 5906 5904 5903 5901 5899 5898 5897 5896 5894 5893 5893 5892 5891 5891 5890 5890 5890 5889 5889 5889 5889 5889 5889 5889 5890 5890 5890 5890 5891 5891 5891 5892 5892
5920 5921 5921 5920 5920 5920 5920 5920 5919 5918 5917 5916 5915 5913 5912 5910 5909 5907 5905 5904 5902 5900 5899 5898 5897 5896 5895 5894 5894 5893 5892 5892 5892 5891 5891 5891 5890 5890 5890 5890 5890 5890 5890 5890 5890 5891 5891 5891 5891
5921 5921 5922 5922 5921 5921 5923 5922 5921 5920 5919 5918 5917 5916 5914 5913 5911 5910 5908 5906 5905 5903 5902 5901 5899 5898 5898 5897 5896 5895 5895 5894 5894 5893 5892 5892 5892 5891 5891 5891 5891 5890 5890 5890 5890 5891 5891 5891 5891
5920 5921 5922 5923 5922 5922 5923 5923 5923 5922 5921 5920 5919 5918 5916 5915 5914 5912 5911 5909 5908 5906 5905 5903 5902 5901 5900 5899 5898 5897 5897 5896 5895 5894 5893 5893 5892 5892 5892 5892 5891 5891 5890 5890 5890 5890 5890 5891 5890
5920 5921 5923 5923 5923 5923 5924 5924 5924 5923 5922 5921 5920 5919 5918 5917 5916 5914 5913 5911 5910 5908 5907 5905 5904 5903 5902 5901 5900 5899 5898 5897 5896 5895 5894 5893 5893 5892 5892 5892 5891 5891 5891 5890 5890 5890 5890 5890 5890
5919 5921 5923 5923 5923 5924 5924 5924 5925 5924 5923 5923 5922 5921 5920 5918 5917 5916 5914 5913 5912 5911 5909 5908 5906 5905 5904 5903 5902 5901 5900 5899 5897 5896 5895 5894 5894 5893 5892 5892 5892 5892 5891 5891 5890 5890 5890 5890 5890
5918 5920 5922 5923 5923 5924 5924 5925 5925 5925 5924 5924 5924 5923 5921 5920 5919 5917 5916 5915 5914 5912 5911 5910 5908 5906 5905 5904 5903 5902 5901 5900 5899 5897 5896 5895 5894 5894 5893 5892 5892 5892 5891 5890 5890 5890 5889 5889 5889
5916 5919 5921 5922 5922 5923 5924 5925 5925 5926 5925 5925 5925 5924 5923 5921 5920 5918 5917 5916 5915 5914 5913 5911 5910 5908 5906 5905 5904 5903 5902 5901 5900 5898 5897 5896 5895 5894 5893 5892 5892 5891 5891 5890 5890 5889 5889 5889 5888
5915 5917 5918 5920 5921 5922 5924 5924 5926 5926 5926 5925 5925 5924 5923 5922 5921 5919 5918 5917 5916 5915 5914 5913 5911 5909 5908 5906 5905 5904 5903 5902 5900 5899 5898 5896 5895 5894 5893 5892 5891 5891 5890 5890 5889 5889 5888 5888 5887
5912 5914 5916 5918 5919 5920 5922 5923 5925 5925 5925 5925 5925 5924 5923 5922 5921 5920 5919 5918 5917 5916 5915 5913 5912 5910 5909 5907 5906 5905 5904 5902 5901 5899 5898 5896 5895 5894 5893 5892 5891 5890 5889 5889 5888 5888 5887 5886 5885
5909 5912 5914 5915 5917 5918 5920 5922 5924 5924 5925 5925 5925 5924 5923 5922 5921 5920 5919 5918 5917 5916 5915 5914 5913 5911 5910 5908 5907 5906 5904 5903 5901 5899 5898 5896 5894 5893 5892 5891 5890 5889 5888 5888 5887 5886 5885 5884 5883
5906 5909 5911 5912 5914 5916 5918 5919 5922 5923 5923 5924 5924 5924 5923 5922 5921 5920 5919 5918 5917 5916 5915 5914 5913 5911 5910 5909 5907 5906 5904 5902 5901 5899 5897 5896 5894 5892 5891 5890 5889 5888 5887 5886 5885 5884 5883 5882 5881
5902 5905 5908 5910 5911 5914 5915 5916 5920 5920 5922 5922 5922 5922 5921 5921 5920 5920 5919 5918 5917 5916 5915 5914 5912 5911 5910 5909 5907 5905 5904 5902 5900 5898 5896 5895 5893 5891 5890 5888 5887 5886 5885 5884 5883 5882 5881 5879 5878
5897 5900 5904 5906 5907 5910 5911 5914 5916 5918 5919 5920 5920 5920 5920 5920 5919 5919 5918 5917 5917 5916 5915 5913 5912 5911 5909 5908 5907 5905 5903 5901 5899 5897 5895 5894 5892 5890 5889 5887 5886 5885 5884 5882 5881 5880 5879 5877 5875
5893 5896 5899 5901 5903 5905 5908 5910 5913 5915 5916 5918 5918 5918 5918 5918 5918 5917 5917 5916 5916 5915 5914 5913 5912 5910 5909 5907 5906 5904 5903 5901 5898 5897 5895 5893 5891 5889 5888 5886 5885 5883 5882 5881 5879 5878 5876 5875 5873
5887 5891 5893 5896 5899 5901 5904 5909 5910 5912 5913 5915 5915 5916 5916 5916 5916 5916 5915 5915 5914 5913 5912 5912 5911 5910 5908 5906 5904 5903 5901 5899 5897 5895 5893 5891 5890 5888 5886 5885 5883 5882 5880 5879 5877 5876 5874 5873 5871
5881 5885 5888 5892 5894 5896 5899 5905 5906 5908 5910 5911 5912 5913 5913 5914 5913 5913 5913 5913 5912 5911 5910 5910 5909 5908 5907 5905 5903 5901 5900 5898 5896 5894 5892 5890 5888 5887 5885 5883 5882 5880 5879 5877 5875 5874 5872 5870 5868